FW7685 Weather Reports


time (UTC)temp
C
wind
direction
speed
KPH
gust
KPH
rain 1hr
cm
rain 24hr
cm
rain mn
cm
humidity
%
barometer
mb
20260510135828 12 28 6.4 17.7 0.00 0.00 0.00 49 1014.8
20260510135326 12 68 8.0 17.7 0.00 0.00 0.00 49 1014.8
20260510134828 12 51 4.8 16.1 0.00 0.00 0.00 49 1014.8
20260510134718 12 41 8.0 16.1 0.00 0.00 0.00 49 1014.9
20260510133827 12 37 6.4 17.7 0.00 0.00 0.00 49 1014.8
20260510133756 12 11 6.4 17.7 0.00 0.00 0.00 49 1014.9
20260510133219 12 45 4.8 11.3 0.00 0.00 0.00 49 1014.7
20260510132326 12 42 3.2 9.7 0.00 0.00 0.00 49 1014.8
20260510131825 12 51 4.8 11.3 0.00 0.00 0.00 49 1014.8
20260510131724 12 54 4.8 11.3 0.00 0.00 0.00 49 1014.8
20260510130824 12 306 3.2 9.7 0.00 0.00 0.00 49 1014.9
20260510130325 12 8 4.8 19.3 0.00 0.00 0.00 49 1015.0
20260510125825 12 334 4.8 19.3 0.00 0.00 0.00 49 1015.0
20260510125724 13 13 6.4 11.3 0.00 0.00 0.00 49 1015.0
20260510124824 13 48 4.8 11.3 0.00 0.00 0.00 48 1015.0
20260510124325 13 8 3.2 11.3 0.00 0.00 0.00 48 1015.1
20260510123825 13 0 4.8 11.3 0.00 0.00 0.00 48 1015.2
20260510123324 13 58 4.8 14.5 0.00 0.00 0.00 48 1015.2
20260510123221 13 21 6.4 20.9 0.00 0.00 0.00 48 1015.3
20260510122324 13 114 8.0 20.9 0.00 0.00 0.00 47 1015.3
20260510121827 13 49 9.7 20.9 0.00 0.00 0.00 47 1015.3
20260510121324 13 69 6.4 19.3 0.00 0.00 0.00 47 1015.2
20260510120822 13 44 9.7 20.9 0.00 0.00 0.00 47 1015.3
20260510120324 13 72 9.7 20.9 0.00 0.00 0.00 47 1015.3
20260510115822 13 6 8.0 22.5 0.00 0.00 0.00 46 1015.2
20260510115324 13 68 9.7 22.5 0.00 0.00 0.00 46 1015.2
20260510114825 13 45 9.7 22.5 0.00 0.00 0.00 46 1015.3
20260510114325 13 55 9.7 22.5 0.00 0.00 0.00 46 1015.2
20260510113824 13 351 6.4 20.9 0.00 0.00 0.00 47 1015.4
20260510113324 13 42 6.4 16.1 0.00 0.00 0.00 47 1015.4
20260510112823 13 30 8.0 16.1 0.00 0.00 0.00 46 1015.4
20260510112322 13 47 6.4 11.3 0.00 0.00 0.00 47 1015.5
20260510112218 13 13 4.8 14.5 0.00 0.00 0.00 47 1015.5
20260510111324 13 316 3.2 17.7 0.00 0.00 0.00 47 1015.5
20260510111220 13 16 8.0 17.7 0.00 0.00 0.00 47 1015.5
20260510110322 13 30 4.8 19.3 0.00 0.00 0.00 47 1015.7
20260510105824 13 42 6.4 19.3 0.00 0.00 0.00 47 1015.8
20260510105322 13 73 9.7 19.3 0.00 0.00 0.00 47 1015.6
20260510104822 13 76 6.4 19.3 0.00 0.00 0.00 48 1015.7
20260510104322 13 42 6.4 20.9 0.00 0.00 0.00 48 1015.8
20260510103823 12 30 6.4 20.9 0.00 0.00 0.00 48 1015.8
20260510103324 12 63 6.4 24.1 0.00 0.00 0.00 48 1015.9
20260510102821 12 45 4.8 24.1 0.00 0.00 0.00 48 1015.8
20260510102720 12 76 9.7 22.5 0.00 0.00 0.00 48 1015.9
20260510101820 12 41 6.4 22.5 0.00 0.00 0.00 48 1016.0
20260510101318 12 28 8.0 14.5 0.00 0.00 0.00 49 1015.9
20260510100818 12 30 6.4 19.3 0.00 0.00 0.00 49 1015.9
20260510100318 12 1 6.4 19.3 0.00 0.00 0.00 49 1015.9
20260510095817 12 37 4.8 19.3 0.00 0.00 0.00 49 1015.9
20260510095318 12 78 6.4 14.5 0.00 0.00 0.00 50 1016.0
20260510094816 12 1 3.2 17.7 0.00 0.00 0.00 50 1016.0
20260510094713 12 28 6.4 17.7 0.00 0.00 0.00 50 1016.0
20260510093817 11 1 6.4 17.7 0.00 0.00 0.00 50 1016.1
20260510093312 11 83 4.8 20.9 0.00 0.00 0.00 51 1016.1
20260510092812 11 76 6.4 20.9 0.00 0.00 0.00 50 1016.1
20260510092704 11 1 4.8 14.5 0.00 0.00 0.00 51 1016.1
20260510091812 11 6 6.4 16.1 0.00 0.00 0.00 51 1016.2
20260510091311 11 14 6.4 16.1 0.00 0.00 0.00 51 1016.1
20260510090811 11 49 6.4 16.1 0.00 0.00 0.00 51 1016.2
20260510090310 11 35 3.2 20.9 0.00 0.00 0.00 52 1016.2
20260510085809 11 61 8.0 20.9 0.00 0.00 0.00 51 1016.3
20260510085311 11 348 6.4 16.1 0.00 0.00 0.00 52 1016.4
20260510084807 11 44 4.8 14.5 0.00 0.00 0.00 52 1016.3
20260510084308 11 25 6.4 16.1 0.00 0.00 0.00 52 1016.4
20260510083940 11 351 6.4 22.5 0.00 0.00 0.00 52 1016.4
20260510083204 11 24 6.4 20.9 0.00 0.00 0.00 52 1016.4
20260510082306 11 16 4.8 11.3 0.00 0.00 0.00 52 1016.4
20260510081804 10 21 4.8 16.1 0.00 0.00 0.00 52 1016.4
20260510081302 10 306 4.8 11.3 0.00 0.00 0.00 53 1016.5
20260510080804 10 38 6.4 11.3 0.00 0.00 0.00 53 1016.5
20260510080433 10 30 6.4 11.3 0.00 0.00 0.00 53 1016.5
20260510075306 10 45 3.2 14.5 0.00 0.00 0.00 54 1016.5
20260510074802 10 21 4.8 14.5 0.00 0.00 0.00 54 1016.6
20260510074302 10 49 4.8 11.3 0.00 0.00 0.00 54 1016.5
20260510073803 10 17 4.8 11.3 0.00 0.00 0.00 54 1016.6
20260510073304 10 51 3.2 11.3 0.00 0.00 0.00 54 1016.6
20260510072803 10 20 4.8 19.3 0.00 0.00 0.00 55 1016.4
20260510072657 10 10 4.8 19.3 0.00 0.00 0.00 55 1016.5
20260510071804 10 142 4.8 20.9 0.00 0.00 0.00 55 1016.5
20260510071306 10 45 6.4 20.9 0.00 0.00 0.00 55 1016.5
20260510070805 10 37 3.2 9.7 0.00 0.00 0.00 55 1016.4
20260510070303 10 331 4.8 17.7 0.00 0.00 0.00 55 1016.5
20260510065806 10 49 4.8 19.3 0.00 0.00 0.00 56 1016.5
20260510065306 10 73 6.4 19.3 0.00 0.00 0.00 56 1016.4
20260510064804 10 103 3.2 11.3 0.00 0.00 0.00 56 1016.5
20260510064657 10 30 6.4 9.7 0.00 0.00 0.00 56 1016.5
20260510063804 10 30 3.2 8.0 0.00 0.00 0.00 57 1016.6
20260510063304 10 1 3.2 8.0 0.00 0.00 0.00 57 1016.5
20260510063159 10 71 3.2 8.0 0.00 0.00 0.00 57 1016.4
20260510062307 10 13 3.2 9.7 0.00 0.00 0.00 57 1016.4
20260510061805 10 25 4.8 9.7 0.00 0.00 0.00 57 1016.3
20260510061305 10 10 3.2 9.7 0.00 0.00 0.00 57 1016.4
20260510060805 9 343 1.6 11.3 0.00 0.00 0.00 57 1016.3
20260510060306 9 344 3.2 11.3 0.00 0.00 0.00 57 1016.3
20260510055804 9 1 3.2 9.7 0.00 0.00 0.00 58 1016.2
20260510055306 9 10 3.2 9.7 0.00 0.00 0.00 58 1016.2
20260510054807 9 20 3.2 8.0 0.00 0.00 0.00 58 1016.1
20260510054304 9 1 3.2 9.7 0.00 0.00 0.00 58 1016.1
20260510053806 9 37 3.2 9.7 0.00 0.00 0.00 58 1016.2
20260510053655 9 72 3.2 6.4 0.00 0.00 0.00 58 1016.2
20260510052804 9 16 3.2 6.4 0.00 0.00 0.00 58 1016.2
20260510052306 9 17 3.2 6.4 0.00 0.00 0.00 58 1016.2
20260510051803 9 51 3.2 8.0 0.00 0.00 0.00 58 1016.3
20260510051304 9 45 3.2 8.0 0.00 0.00 0.00 58 1016.2
20260510050803 9 82 3.2 8.0 0.00 0.00 0.00 58 1016.2
20260510050305 9 16 1.6 8.0 0.00 0.00 0.00 58 1016.2
20260510045805 9 1 3.2 8.0 0.00 0.00 0.00 59 1016.2
20260510045306 9 35 1.6 8.0 0.00 0.00 0.00 59 1016.1
20260510045156 9 1 3.2 8.0 0.00 0.00 0.00 59 1016.1
20260510044305 9 20 3.2 8.0 0.00 0.00 0.00 59 1016.1
20260510043804 9 303 3.2 8.0 0.00 0.00 0.00 59 1016.1
20260510043305 9 89 3.2 8.0 0.00 0.00 0.00 59 1016.1
20260510042804 9 336 3.2 6.4 0.00 0.00 0.00 58 1016.1
20260510042306 9 51 3.2 6.4 0.00 0.00 0.00 58 1016.2
20260510042159 9 1 3.2 6.4 0.00 0.00 0.00 58 1016.2
20260510041306 9 1 3.2 6.4 0.00 0.00 0.00 58 1016.2
20260510040805 9 45 1.6 3.2 0.00 0.00 0.00 58 1016.3
20260510040304 9 13 1.6 6.4 0.00 0.00 0.00 58 1016.3
20260510035805 9 1 1.6 6.4 0.00 0.00 0.00 58 1016.3
20260510035306 9 68 3.2 8.0 0.00 0.00 0.00 58 1016.4
20260510034806 9 45 3.2 8.0 0.00 0.00 0.00 58 1016.3
20260510034304 9 348 1.6 9.7 0.00 0.00 0.00 58 1016.3
20260510033806 9 1 3.2 9.7 0.00 0.00 0.00 58 1016.4
20260510033304 9 16 3.2 9.7 0.00 0.00 0.00 58 1016.5
20260510032805 9 314 1.6 6.4 0.00 0.00 0.00 58 1016.5
20260510032306 9 10 3.2 8.0 0.00 0.00 0.00 58 1016.6
20260510031805 9 285 1.6 8.0 0.00 0.00 0.00 58 1016.6
20260510031304 10 329 1.6 6.4 0.00 0.00 0.00 58 1016.6
20260510030804 10 341 3.2 9.7 0.00 0.00 0.00 58 1016.7
20260510030305 10 39 3.2 9.7 0.00 0.00 0.00 58 1016.6
20260510025804 10 32 1.6 8.0 0.00 0.00 0.00 58 1016.6
20260510025306 10 45 3.2 8.0 0.00 0.00 0.00 58 1016.6
20260510024805 10 314 3.2 9.7 0.00 0.00 0.00 58 1016.6
20260510024303 10 39 3.2 9.7 0.00 0.00 0.00 58 1016.5
20260510023803 10 254 3.2 8.0 0.00 0.00 0.00 57 1016.5
20260510023303 10 17 3.2 8.0 0.00 0.00 0.00 57 1016.5
20260510022803 10 320 3.2 8.0 0.00 0.00 0.00 57 1016.5
20260510022306 10 56 3.2 11.3 0.00 0.00 0.00 57 1016.6
20260510022201 10 89 3.2 11.3 0.00 0.00 0.00 57 1016.5
20260510021304 10 1 3.2 8.0 0.00 0.00 0.00 57 1016.6
20260510020804 10 23 3.2 9.7 0.00 0.00 0.00 56 1016.6
20260510020528 10 39 3.2 9.7 0.00 0.00 0.00 56 1016.6
20260510015306 10 37 3.2 9.7 0.00 0.00 0.00 55 1016.5
20260510014803 10 13 3.2 9.7 0.00 0.00 0.00 54 1016.5
20260510014703 10 45 3.2 6.4 0.00 0.00 0.00 54 1016.4
20260510013804 10 312 3.2 8.0 0.00 0.00 0.00 53 1016.4
20260510013302 10 32 3.2 9.7 0.00 0.00 0.00 52 1016.5
20260510012803 11 45 3.2 9.7 0.00 0.00 0.00 51 1016.5
20260510012307 11 32 3.2 8.0 0.00 0.00 0.00 49 1016.5
20260510012159 11 317 3.2 8.0 0.00 0.00 0.00 48 1016.5
20260510011700 11 38 3.2 6.4 0.00 0.00 0.00 48 1016.5
20260510010800 11 20 1.6 4.8 0.00 0.00 0.00 48 1016.4
20260510010302 11 269 1.6 6.4 0.00 0.00 0.00 48 1016.6
20260510005800 11 56 1.6 9.7 0.00 0.00 0.00 48 1016.4
20260510005301 11 28 4.8 9.7 0.00 0.00 0.00 48 1016.4
20260510004802 11 7 1.6 8.0 0.00 0.00 0.00 47 1016.4
20260510004302 11 20 1.6 9.7 0.00 0.00 0.00 47 1016.4
20260510003756 12 1 3.2 9.7 0.00 0.00 0.00 47 1016.5
20260510003257 12 28 3.2 6.4 0.00 0.00 0.00 46 1016.5
20260510002757 12 314 1.6 4.8 0.00 0.00 0.00 46 1016.6
20260510002255 12 28 3.2 6.4 0.00 0.00 0.00 46 1016.5
20260510001755 12 314 3.2 6.4 0.00 0.00 0.00 46 1016.6
20260510001255 12 38 3.2 6.4 0.00 0.00 0.00 46 1016.6
20260510001148 12 319 1.6 6.4 0.00 0.00 0.00 46 1016.5
20260510000253 12 23 3.2 6.4 0.00 0.00 0.00 45 1016.5
20260509235752 12 344 3.2 6.4 0.00 0.00 0.00 45 1016.5
20260509235640 12 327 3.2 4.8 0.00 0.00 0.00 45 1016.4
20260509234751 12 341 3.2 4.8 0.00 0.00 0.00 45 1016.6
20260509234252 12 56 1.6 8.0 0.00 0.00 0.00 44 1016.4
20260509233750 12 351 1.6 8.0 0.00 0.00 0.00 44 1016.4
20260509233252 12 45 1.6 4.8 0.00 0.00 0.00 44 1016.4
20260509232752 12 1 3.2 3.2 0.00 0.00 0.00 44 1016.4
20260509232251 12 45 1.6 3.2 0.00 0.00 0.00 44 1016.4
20260509232149 12 20 3.2 6.4 0.00 0.00 0.00 44 1016.4
20260509231246 12 17 3.2 6.4 0.00 0.00 0.00 43 1016.4
20260509230748 12 45 1.6 6.4 0.00 0.00 0.00 43 1016.4
20260509230638 12 1 3.2 6.4 0.00 0.00 0.00 42 1016.4
20260509230151 12 89 1.6 4.8 0.00 0.00 0.00 42 1016.3
20260509225246 13 35 1.6 6.4 0.00 0.00 0.00 41 1016.4
20260509224744 13 56 3.2 6.4 0.00 0.00 0.00 41 1016.4
20260509224639 13 45 1.6 6.4 0.00 0.00 0.00 41 1016.3
20260509224144 13 324 1.6 6.4 0.00 0.00 0.00 41 1016.4
20260509223635 13 37 3.2 9.7 0.00 0.00 0.00 40 1016.3
20260509222741 13 94 3.2 9.7 0.00 0.00 0.00 40 1016.4
20260509222242 13 20 3.2 8.0 0.00 0.00 0.00 39 1016.3
20260509221743 13 72 1.6 4.8 0.00 0.00 0.00 39 1016.3
20260509221643 13 63 0.0 6.4 0.00 0.00 0.00 39 1016.4
20260509220740 13 76 3.2 11.3 0.00 0.00 0.00 39 1016.4
20260509220237 13 45 3.2 11.3 0.00 0.00 0.00 38 1016.3
20260509220136 13 39 3.2 6.4 0.00 0.00 0.00 38 1016.3
20260509215238 13 76 3.2 6.4 0.00 0.00 0.00 38 1016.3
20260509214734 13 45 1.6 9.7 0.00 0.00 0.00 37 1016.3
20260509214235 13 45 3.2 9.7 0.00 0.00 0.00 37 1016.3
20260509213736 13 1 3.2 9.7 0.00 0.00 0.00 36 1016.4
20260509213236 13 310 3.2 8.0 0.00 0.00 0.00 36 1016.4
20260509212733 13 35 3.2 6.4 0.00 0.00 0.00 36 1016.5
20260509212234 13 59 1.6 6.4 0.00 0.00 0.00 35 1016.4
20260509211733 14 45 1.6 6.4 0.00 0.00 0.00 35 1016.5
20260509211415 14 76 3.2 11.3 0.00 0.00 0.00 35 1016.2
20260509211325 14 76 3.2 8.0 0.00 0.00 0.00 35 1016.3
20260509205733 14 28 3.2 6.4 0.00 0.00 0.00 35 1016.2
20260509205232 15 178 1.6 6.4 0.00 0.00 0.00 35 1016.1
20260509204732 15 54 1.6 11.3 0.00 0.00 0.00 35 1016.1
20260509204234 15 45 3.2 11.3 0.00 0.00 0.00 34 1016.0
20260509203734 15 38 3.2 11.3 0.00 0.00 0.00 34 1016.0
20260509203612 15 42 3.2 6.4 0.00 0.00 0.00 35 1015.9
20260509203116 15 45 3.2 8.0 0.00 0.00 0.00 34 1015.9
20260509202218 15 51 4.8 11.3 0.00 0.00 0.00 34 1016.0
20260509201718 15 65 3.2 11.3 0.00 0.00 0.00 33 1015.9
20260509201217 15 75 4.8 11.3 0.00 0.00 0.00 33 1015.8
20260509200718 15 68 6.4 9.7 0.00 0.00 0.00 32 1015.8
20260509200216 15 72 4.8 9.7 0.00 0.00 0.00 33 1015.8
20260509195718 16 35 4.8 11.3 0.00 0.00 0.00 33 1015.7
20260509195217 16 45 3.2 11.3 0.00 0.00 0.00 33 1015.8
20260509194719 16 55 4.8 14.5 0.00 0.00 0.00 33 1015.8
20260509194218 16 73 4.8 14.5 0.00 0.00 0.00 33 1015.7
20260509193718 16 17 3.2 9.7 0.00 0.00 0.00 33 1015.7
20260509193357 16 61 3.2 9.7 0.00 0.00 0.00 33 1015.6
20260509192217 16 41 3.2 8.0 0.00 0.00 0.00 34 1015.5
20260509191717 16 39 3.2 8.0 0.00 0.00 0.00 33 1015.5
20260509191216 16 28 3.2 9.7 0.00 0.00 0.00 34 1015.6
20260509190717 17 45 4.8 9.7 0.00 0.00 0.00 34 1015.5
20260509190215 17 75 4.8 11.3 0.00 0.00 0.00 34 1015.4
20260509185716 17 45 6.4 11.3 0.00 0.00 0.00 33 1015.3
20260509185216 17 56 3.2 11.3 0.00 0.00 0.00 33 1015.3
20260509184717 17 38 4.8 11.3 0.00 0.00 0.00 32 1015.3
20260509184216 17 41 6.4 11.3 0.00 0.00 0.00 31 1015.4
20260509183717 17 61 4.8 9.7 0.00 0.00 0.00 31 1015.4
20260509183608 17 16 4.8 11.3 0.00 0.00 0.00 31 1015.2
20260509183119 17 28 4.8 11.3 0.00 0.00 0.00 31 1015.2
20260509182215 18 68 4.8 11.3 0.00 0.00 0.00 31 1015.1
20260509181717 18 39 6.4 11.3 0.00 0.00 0.00 31 1015.1
20260509181214 18 28 4.8 11.3 0.00 0.00 0.00 31 1015.1
20260509180717 18 63 3.2 9.7 0.00 0.00 0.00 31 1015.0
20260509180214 18 48 4.8 11.3 0.00 0.00 0.00 31 1015.0
20260509180116 18 79 4.8 11.3 0.00 0.00 0.00 30 1014.9
20260509175609 18 89 3.2 11.3 0.00 0.00 0.00 31 1014.9
20260509175119 18 89 4.8 14.5 0.00 0.00 0.00 29 1014.9
20260509174212 18 63 6.4 17.7 0.00 0.00 0.00 30 1014.9
20260509173713 18 63 8.0 17.7 0.00 0.00 0.00 31 1014.8
20260509173609 19 66 6.4 16.1 0.00 0.00 0.00 30 1014.8
20260509172711 19 51 6.4 16.1 0.00 0.00 0.00 31 1014.7
20260509172211 19 54 4.8 14.5 0.00 0.00 0.00 30 1014.7
20260509171713 19 83 6.4 16.1 0.00 0.00 0.00 29 1014.7
20260509171208 20 72 8.0 16.1 0.00 0.00 0.00 29 1014.7
20260509170709 20 55 6.4 16.1 0.00 0.00 0.00 29 1014.8
20260509170208 20 52 8.0 16.1 0.00 0.00 0.00 28 1014.8
20260509165707 20 51 6.4 14.5 0.00 0.00 0.00 28 1014.8
20260509165206 20 45 4.8 11.3 0.00 0.00 0.00 28 1014.8
20260509164709 20 48 6.4 14.5 0.00 0.00 0.00 28 1014.9
20260509164205 21 76 8.0 14.5 0.00 0.00 0.00 27 1014.8
20260509164109 21 25 3.2 11.3 0.00 0.00 0.00 26 1014.7
20260509163604 21 65 3.2 11.3 0.00 0.00 0.00 26 1014.8
20260509162703 21 63 3.2 17.7 0.00 0.00 0.00 26 1014.8
20260509162556 21 78 8.0 16.1 0.00 0.00 0.00 26 1014.7
20260509161705 21 45 6.4 14.5 0.00 0.00 0.00 26 1014.6
20260509161558 21 54 8.0 14.5 0.00 0.00 0.00 26 1014.6
20260509160702 21 42 4.8 11.3 0.00 0.00 0.00 27 1014.7
20260509160200 21 45 3.2 16.1 0.00 0.00 0.00 27 1014.7
20260509155702 21 42 4.8 16.1 0.00 0.00 0.00 27 1014.7
20260509155200 21 89 3.2 11.3 0.00 0.00 0.00 27 1014.8
20260509154703 21 35 4.8 14.5 0.00 0.00 0.00 27 1015.0
20260509154340 21 351 3.2 14.5 0.00 0.00 0.00 27 1014.9
20260509153156 21 58 6.4 11.3 0.00 0.00 0.00 27 1015.0
20260509152659 21 42 3.2 14.5 0.00 0.00 0.00 28 1015.0
20260509152157 21 76 6.4 14.5 0.00 0.00 0.00 28 1015.2
20260509151657 21 35 4.8 11.3 0.00 0.00 0.00 27 1015.0
20260509151159 21 38 3.2 11.3 0.00 0.00 0.00 27 1015.1
20260509150659 21 99 3.2 11.3 0.00 0.00 0.00 28 1015.3
20260509150158 21 62 3.2 16.1 0.00 0.00 0.00 27 1015.3
20260509145656 21 54 4.8 16.1 0.00 0.00 0.00 26 1015.2
20260509145156 21 51 4.8 14.5 0.00 0.00 0.00 26 1015.2
20260509145050 21 61 8.0 14.5 0.00 0.00 0.00 26 1015.3
20260509144554 21 25 4.8 11.3 0.00 0.00 0.00 26 1015.2
20260509144054 21 72 8.0 14.5 0.00 0.00 0.00 26 1015.2
20260509143158 21 45 4.8 17.7 0.00 0.00 0.00 27 1015.2
20260509142658 21 45 8.0 17.7 0.00 0.00 0.00 27 1015.2
20260509142156 21 38 4.8 14.5 0.00 0.00 0.00 27 1015.1
20260509141656 21 59 6.4 16.1 0.00 0.00 0.00 26 1015.0
20260509141157 21 59 4.8 16.1 0.00 0.00 0.00 25 1015.0
20260509140656 21 37 4.8 14.5 0.00 0.00 0.00 27 1014.9